Regional Weather Roundup
Issued by NWS Mt. Holly, NJ

Home | Current Version | Previous Version | Text Only | Print | Product List | Glossary On
Versions: 1 2 3 4 5 6 7 8 9 10 11 12 13 14 15 16 17 18 19 20 21 22 23 24 25 26 27 28 29 30 31 32 33 34 35 36 37 38 39 40 41 42 43 44 45 46 47 48 49 50
000
ASUS41 KPHI 282010
RWRPHI

REGIONAL WEATHER ROUNDUP
NATIONAL WEATHER SERVICE MOUNT HOLLY NJ
400 PM EDT MON JUL 28 2014

NOTE:  "FAIR" INDICATES FEW OR NO CLOUDS BELOW 12,000 FEET WITH NO
SIGNIFICANT WEATHER AND/OR OBSTRUCTIONS TO VISIBILITY.

 * = STATION DOES NOT REPORT PRECIPITATION (E.G. RAIN, SNOW, ETC.)
        OR FOG.

NJZ015>026-282100-
SOUTHERN NEW JERSEY

CITY           SKY/WX    TMP DP  RH WIND       PRES   REMARKS
POMONA         PTSUNNY   82  60  47 W13G23    29.60S
RIO GRANDE*    MOSUNNY   82  61  47 W14G21    29.65R
MILLVILLE      MOSUNNY   84  58  40 W17G25    29.62S
WRIGHTSTOWN    MOSUNNY   82  61  48 W16G23    29.56S
MOUNT HOLLY    PTSUNNY   81  60  48 SW9       29.59S
TRENTON        PTSUNNY   80  59  48 MISG      29.58R

$$
NJZ001>014-282100-
NORTHERN NEW JERSEY

CITY           SKY/WX    TMP DP  RH WIND       PRES   REMARKS
SUSSEX         MOSUNNY   80  63  55 SW9G16    29.54S
ANDOVER*         N/A     76  63  64 VRB3      29.57S
NEWARK         PTSUNNY   83  60  45 W21G29    29.54R
TETERBORO      MOSUNNY   86  61  42 W15G22    29.52R
CALDWELL       PTSUNNY   80  60  50 W12G20    29.54R
SOMERVILLE     MOSUNNY   82  60  47 W9G21     29.54S
ALLAIRE*       SUNNY     82  61  47 W16       29.57S
TOMS RIVER*    MOSUNNY   84  61  45 W13G20    29.58S

$$
PAZ043-044-047-054-055-060>062-066>071-282100-
EASTERN PENNSYLVANIA

CITY           SKY/WX    TMP DP  RH WIND       PRES   REMARKS
PHILADELPHIA   PTSUNNY   83  59  44 W22G30    29.60S
NORTH PHILA    CLOUDY    84  58  40 W18       29.60R
BLUE BELL      SUNNY     81  59  47 W12G23    29.59S
DOYLESTOWN     MOSUNNY   79  58  48 W9G18     29.59S
QUAKERTOWN*    MOSUNNY   79  59  50 W10G20    29.60S
POTTSTOWN      PTSUNNY   80  59  48 W9G20     29.61S
LANCASTER      MOSUNNY   79  59  50 W15G29    29.63R
COATESVILLE    PTSUNNY   77  61  57 W12G18    29.64R
READING        SUNNY     81  59  47 W16G26    29.59S
ALLENTOWN      MOSUNNY   81  58  45 W13G22    29.58R
MOUNT POCONO   PTSUNNY   72  57  59 W16       29.62R
HAZLETON       PTSUNNY   73  59  60 W6G16     29.66R
WILKES BARRE   LGT RAIN  63  59  87 S5        29.62R FOG

$$
DEZALL-MDZ008-012-015-019-020-282100-
DELAWARE AND EASTERN MARYLAND

CITY           SKY/WX    TMP DP  RH WIND       PRES   REMARKS
WILMINGTON     PTSUNNY   82  61  48 W16G22    29.63R
DOVER          MOSUNNY   84  61  44 W20G26    29.62S
GEORGETOWN     PTSUNNY   84  59  42 VRB6G16   29.65S
EASTON         PTSUNNY   84  61  45 W9        29.70R
PATUXENT       MOSUNNY   86  55  34 W15       29.67S
OCEAN CITY     CLOUDY    84  60  44 W14G23    29.66R
WALLOPS ISLAND PTSUNNY   86  62  44 NW12      29.68R
CAMBRIDGE      MOSUNNY   84  54  34 W12G20    29.66S
SALISBURY      PTSUNNY   86  59  39 W14G21    29.66S

$$
PAZ001-021-NYZ056-072-MDZ011-DCZ001-282100-
OTHER NEARBY LOCATIONS

CITY           SKY/WX    TMP DP  RH WIND       PRES   REMARKS
HARRISBURG     PTSUNNY   79  60  52 W12G22    29.63R
STATE COLLEGE  LGT RAIN  63  61  94 NW9       29.70R
WILLIAMSPORT   PTSUNNY   68  61  78 W9        29.62R
BINGHAMTON     CLOUDY    68  60  75 N13G21    29.60R
NEW YORK CITY  PTSUNNY   79  62  56 MISG      29.56R
BALTIMORE      PTSUNNY   84  56  38 W17G28    29.65R
WASHINGTON DC  MOSUNNY   86  56  35 W13G28    29.69S

$$



USA.gov is the U.S. government's official web portal to all federal, state and local government web resources and services.